STARLINK-34560, 64700

Orbit data source: Space-Track

STARLINK-34560, 64700 is a payload satellite owned by SpaceX/Seattle (US) in LEO that was launched on Sat, 28 Jun 2025 UTC via an FALCON 9 launch vehicle from the Air Force Western Test Range (AFWTR). Payload-class satellites include a variety of spacecraft equipped with specific instruments for various scientific and technological missions. These include communications satellites like Starlink; space stations such as the ISS; scientific satellites like the Hubble; Earth observation satellites from companies like Planet Labs, Umbra, and HawkEye 360; GPS; miniature CubeSats for education and research; and military/defense satellites.

Loading next visibility...
Identifier
64700, 2025-142E
Orbit
LEO
Last TLE update
4 hours ago
Origin
Manufacturer
SpaceX/Seattle
Mission
Operational spacecraft
Bus & Motor
STARLINK V2MO, Unknown motor
Mass
575 kg wet, ~530 kg dry
Launch date (UTC)
2025-06-28 (3 weeks ago)
Launch vehicle
FALCON 9
Launch site
Air Force Western Test Range (AFWTR)
Object type
Payload
Rocket body
Debris
Shape & HBR
Unknown
Radar Cross Section
Large (>1 m²)

Expand to show TLE details & history

TLE from 4 hours ago
0 STARLINK-34560
1 64700U 25142E   25199.58335648 -.01241819  00000-0 -21482-1 0  9995
2 64700  69.9999 194.6617 0004147 277.1027 161.6315 15.53410702  4113
Epoch: 2025-07-18T14:00Z
TLE epoch observation values (Epoch: 2025-07-18T14:00:01.999Z)
Latitude
67.27368°
Longitude
107.8057°
Altitude
420.456 km
Speed
7.664 km/s
True Right ascension
16h 57m 47s
True Declination
67° 08' 41"
Sunlit
Object was in daylight at epoch
Visualization orbit readout
Latitude
-2.80801°
Longitude
-131.36624°
Altitude
410.956 km
Speed
7.664 km/s
Apparent Right ascension
22h 23m 55s
Apparent Declination
-30° 03' 33"
Sunlit
Object is in daylight
Visualization observer readout
Local Sidereal Time
06:18:59
Azimuth
261.238° W
Elevation
-39.854°
Doppler factor
1
Orbital elements
Apogee altitude
407.487 km
Perigee altitude
401.862 km
Semi-major axis
6,782.812 km
Eccentricity
0.00041
Inclination
69.9999°
RAAN
194.6617°
Arg. of periapsis
277.1027°
True anomaly
161.64647°
Mean anomaly
161.6315°
Eccentric anomaly
161.63898°
Mean motion
3.88534 °/min
Orbital period
92.66 mins
BSTAR
-0.021482
Loading maneuver chart data...
Loading SW <> Apogee altitude chart data...
Loading historical data...
Loading historical data...
Loading historical data...
Loading historical data...
Loading historical data...
Loading historical data...
Loading historical data...
|